Montreal Mirabel, Quebec

11:22 AM EDT on May 23, 2017 (GMT -0400)
Montreal Mirabel

Weather History for CYMX - January, 2015

Change the Weather History Date:

Friday, January 16, 2015

  Actual Average Record
Temperature  
Mean Temperature 11 °F -  
Max Temperature 24 °F 15 °F 37 °F (1997)
Min Temperature -5 °F 1 °F -29 °F (2009)
Degree Days  
Heating Degree Days 54    
Moisture  
Dew Point 2 °F    
Average Humidity 66    
Maximum Humidity 93    
Minimum Humidity 47    
Precipitation  
Precipitation 0.00 in - - ()
Sea Level Pressure  
Sea Level Pressure 29.85 in    
Wind  
Wind Speed 9 mph ()    
Max Wind Speed 17 mph    
Max Gust Speed 29 mph    
Visibility 5.4 miles    
Events Snow    
Averages and records for this station are not official NWS values.
T = Trace of Precipitation, MM = Missing Value Source: Averaged Metar Reports

Daily Weather History Graph

Daily Weather History Graph

Search for Another Location

Airport or City:

Trip Planner

Search our weather history database for the weather conditions in past years. The results will help you decide how hot, cold, wet, or windy it might be!

Date:

Astronomy

Jan. 16, 2015 Rise Set
Actual Time 7:32 AM EST 4:39 PM EST
Civil Twilight 6:59 AM EST 5:12 PM EST
Nautical Twilight 6:22 AM EST 5:49 PM EST
Astronomical Twilight 5:47 AM EST 6:25 PM EST
Moon 3:22 AM EST (1/16) 1:15 PM EST (1/16)
Length of Visible Light 10h 13m
Length of Day
9h 07m
Waning Crescent, 19% of the Moon is Illuminated
Jan 16
Waning Crescent
Jan 20
New
Jan 26
First Quarter
Feb 3
Full
Feb 11
Last Quarter

Hourly Weather History & Observations

Time (EST) Temp. Windchill Dew Point Humidity Pressure Visibility Wind Dir Wind Speed Gust Speed Precip Events Conditions
12:00 AM 19.4 °F 9.5 °F 15.8 °F 86% 29.66 in 3.0 mi SSW 8.1 mph - N/A Snow Light Snow
1:00 AM 19.4 °F 9.5 °F 17.6 °F 93% 29.62 in 2.0 mi SSW 8.1 mph - N/A Snow Light Snow
2:00 AM 21.2 °F 12.6 °F 19.4 °F 93% 29.60 in 2.0 mi SW 6.9 mph - N/A Snow Light Snow
3:00 AM 23.0 °F 13.1 °F 21.2 °F 93% 29.58 in 5.0 mi SW 9.2 mph - N/A Snow Light Snow
4:00 AM 24.8 °F 12.9 °F 21.2 °F 86% 29.56 in 6.0 mi SW 13.8 mph - N/A Snow Light Snow
5:00 AM 24.8 °F 16.1 °F 23.0 °F 93% 29.55 in 3.0 mi SW 8.1 mph - N/A Snow Light Snow
6:00 AM 24.8 °F 15.3 °F 23.0 °F 93% 29.56 in 3.0 mi West 9.2 mph - N/A Snow Light Snow
7:00 AM 23.0 °F 13.1 °F 15.8 °F 74% 29.60 in 10.0 mi WNW 9.2 mph 19.6 mph N/A Snow Light Snow
8:00 AM 17.6 °F 5.0 °F 5.0 °F 58% 29.66 in 15.0 mi NW 11.5 mph 27.6 mph N/A Snow Light Snow Showers
8:19 AM 15.8 °F 2.1 °F 5.0 °F 62% 29.68 in 25.0 mi WNW 12.7 mph 26.5 mph N/A Snow Low Drifting Snow
9:00 AM 12.2 °F -1.8 °F 1.4 °F 62% 29.72 in 45.0 mi WNW 11.5 mph 20.7 mph N/A Snow Low Drifting Snow
10:00 AM 10.4 °F -1.5 °F -2.2 °F 57% 29.78 in 45.0 mi WNW 8.1 mph 21.9 mph N/A   Partly Cloudy
11:00 AM 8.6 °F -9.5 °F -4.0 °F 57% 29.83 in 45.0 mi WNW 17.3 mph 26.5 mph N/A Snow Low Drifting Snow
12:00 PM 8.6 °F -4.7 °F -4.0 °F 57% 29.86 in 45.0 mi WNW 9.2 mph 28.8 mph N/A Snow Low Drifting Snow
1:00 PM 10.4 °F -5.4 °F -5.8 °F 48% 29.88 in 45.0 mi WNW 13.8 mph 21.9 mph N/A Snow Low Drifting Snow
2:00 PM 8.6 °F -8.3 °F -5.8 °F 52% 29.92 in 45.0 mi NW 15.0 mph 21.9 mph N/A Snow Low Drifting Snow
3:00 PM 8.6 °F -6.3 °F -5.8 °F 52% 29.97 in 45.0 mi West 11.5 mph 18.4 mph N/A Snow Low Drifting Snow
4:00 PM 6.8 °F -8.6 °F -5.8 °F 56% 30.01 in 45.0 mi West 11.5 mph - N/A Snow Low Drifting Snow
5:00 PM 6.8 °F -5.9 °F -4.0 °F 61% 30.06 in 25.0 mi WNW 8.1 mph - N/A   Scattered Clouds
6:00 PM 3.2 °F -11.3 °F -9.4 °F 56% 30.09 in 25.0 mi West 9.2 mph 19.6 mph N/A Snow Low Drifting Snow
7:00 PM 3.2 °F -11.3 °F -9.4 °F 56% 30.14 in 25.0 mi WNW 9.2 mph - N/A Snow Low Drifting Snow
8:00 PM 1.4 °F -12.5 °F -14.8 °F 47% 30.17 in 25.0 mi NW 8.1 mph 19.6 mph N/A   Clear
9:00 PM -0.4 °F -15.7 °F -14.8 °F 51% 30.21 in 25.0 mi WNW 9.2 mph 17.3 mph N/A   Clear
10:00 PM -2.2 °F -16.8 °F -16.6 °F 50% 30.23 in 25.0 mi WNW 8.1 mph 17.3 mph N/A   Clear
11:00 PM -5.8 °F -16.7 °F -16.6 °F 60% 30.25 in 25.0 mi WNW 4.6 mph - N/A   Clear